Regional Weather Roundup
Issued by NWS Little Rock, AR

Home | Current Version | Previous Version | Text Only | Print | Product List | Glossary On
Versions: 1 2 3 4 5 6 7 8 9 10 11 12 13 14 15 16 17 18 19 20 21 22 23 24 25 26 27 28 29 30 31 32 33 34 35 36 37 38 39 40 41 42 43 44 45 46 47 48 49 50
000
ASUS44 KLZK 270505
RWRLZK

WEATHER ROUNDUP FOR ARKANSAS
NATIONAL WEATHER SERVICE LITTLE ROCK AR
1100 PM CST THU FEB 26 2015

NOTE: "FAIR" INDICATES FEW OR NO CLOUDS BELOW 12,000 FEET WITH NO
SIGNIFICANT WEATHER AND/OR OBSTRUCTIONS TO VISIBILITY.

ARZ001-003-010-029-270600-
NORTHWEST ARKANSAS

CITY           SKY/WX    TMP DP  RH WIND       PRES   REMARKS
FAYETTEVILLE   CLEAR     18   1  47 N5        30.47R WCI  11
FORT SMITH     CLEAR     26   6  42 N13       30.50R WCI  15
HARRISON       CLEAR     17   4  56 N6        30.44R WCI   9
BENTONVILLE    CLEAR     18   3  53 N8        30.47R WCI   7
ROGERS         CLEAR     17   6  62 N6        30.47R WCI   9
SILOAM SPGS    CLEAR     18   1  49 N7        30.49R WCI   8
HIGHFILL       CLEAR     18   5  57 N7        30.47R WCI   9
$$

ARZ004-005-016-270600-
NORTH CENTRAL ARKANSAS

CITY           SKY/WX    TMP DP  RH WIND       PRES   REMARKS
BATESVILLE     CLEAR     21  10  63 NW5       30.47S WCI  15
FLIPPIN        CLEAR     21   3  45 N10G16    30.47R WCI  10
MTN HOME       CLEAR     18   8  65 CALM      30.46R
$$

ARZ040-041-270600-
WEST CENTRAL ARKANSAS

CITY           SKY/WX    TMP DP  RH WIND       PRES   REMARKS
MENA           PTCLDY    30  14  51 N9        30.42S WCI  22
MOUNT IDA      PTCLDY    28  13  53 N5        30.41R WCI  23
$$

ARZ009-017-025-026-028-270600-
NORTHEAST ARKANSAS

CITY           SKY/WX    TMP DP  RH WIND       PRES   REMARKS
CORNING        MIX PCPN  25  14  63 N14       30.48R WCI  13
JONESBORO      CLOUDY    25  14  63 N8        30.46R WCI  16
NEWPORT        CLEAR     23  15  71 N10       30.49R WCI  12
WALNUT RIDGE   MOCLDY    25  10  54 N15       30.48R WCI  12
BLYTHEVILLE    CLOUDY    25  18  74 NE22      30.46R WCI  10
$$

ARZ022-023-033-042-044-270600-
CENTRAL ARKANSAS

CITY           SKY/WX    TMP DP  RH WIND       PRES   REMARKS
LITTLE ROCK    CLEAR     28  15  58 N9        30.47R WCI  19
N LITTLE ROCK  CLEAR     25  18  74 NE7       30.47R WCI  17
JACKSONVILLE   CLEAR     26  13  57 N5        30.47R WCI  20
SEARCY         CLEAR     24  14  65 N9        30.49R WCI  14
HOT SPRINGS    PTCLDY    29  14  53 N3        30.43S
RUSSELLVILLE   CLEAR     27   9  46 N9        30.46R WCI  18
CLINTON        FAIR      21  16  79 CALM      30.49R
$$

ARZ036-270600-
EAST ARKANSAS

CITY           SKY/WX    TMP DP  RH WIND       PRES   REMARKS
WEST MEMPHIS   CLOUDY    27  17  66 N13G23    30.43R WCI  16
$$

ARZ050-053-066-070-073-270600-
SOUTHWEST ARKANSAS

CITY           SKY/WX    TMP DP  RH WIND       PRES   REMARKS
ARKADELPHIA    FAIR      30  18  61 N9        30.45R WCI  22
CAMDEN         CLEAR     28  23  80 MISG      30.44R
TEXARKANA      CLOUDY    32  21  64 N7        30.43R WCI  26
EL DORADO      CLEAR     29  26  89 N5        30.41R WCI  24
DE QUEEN       MOCLDY    31  14  49 N9        30.44R WCI  23
$$

ARZ056-057-069-270600-
SOUTHEAST ARKANSAS

CITY           SKY/WX    TMP DP  RH WIND       PRES   REMARKS
PINE BLUFF     CLEAR     28  17  63 N16       30.44R WCI  16
STUTTGART      CLEAR     27  16  63 N15       30.45S WCI  15
MONTICELLO     CLEAR     30  20  66 N8        30.40S WCI  22

$$




USA.gov is the U.S. government's official web portal to all federal, state and local government web resources and services.